• Processing (Info)

  • MPEC 2016-F30 : 2016 FD1

    The following Minor Planet Electronic Circular may be linked-to from your own Web pages, but must not otherwise be redistributed electronically.

    A form allowing access to any MPEC is at the bottom of this page.


    Read MPEC 2016-F29 Read MPEC 2016-F31


    M.P.E.C. 2016-F30                                Issued 2016 Mar. 18, 16:25 UT
    
         The Minor Planet Electronic Circulars contain information on unusual
             minor planets and routine data on comets.  They are published
        on behalf of Division F of the International Astronomical Union by the
              Minor Planet Center, Smithsonian Astrophysical Observatory,
                              Cambridge, MA 02138, U.S.A.
    
                 Prepared using the Tamkin Foundation Computer Network
    
                                  MPC@CFA.HARVARD.EDU
                URL https://www.minorplanetcenter.net/    ISSN 1523-6714
    
                                       2016 FD1
    
    Observations:
         K16F01D* C2016 03 16.44420 12 13 24.771-24 07 14.47         20.7 rLEF030F51
         K16F01D  C2016 03 16.45614 12 13 22.488-24 06 14.48         20.4 rLEF030F51
         K16F01D  C2016 03 16.48008 12 13 17.900-24 04 13.83         20.6 rLEF030F51
         K16F01D KC2016 03 17.08693412 11 36.63 -23 13 31.6          20.6 RqEF030K92
         K16F01D IC2016 03 17.09180212 11 35.81 -23 13 07.8                qEF030K92
         K16F01D KC2016 03 17.09724912 11 34.85 -23 12 40.9          20.2 RqEF030K92
         K16F01D |C2016 03 17.17772 12 11 25.12 -23 06 19.8          20.9 VuEF030807
         K16F01D |C2016 03 17.18126 12 11 24.49 -23 06 02.9          21.0 VuEF030807
         K16F01D |C2016 03 17.18480 12 11 23.84 -23 05 45.8          20.7 VuEF030807
         K16F01D KC2016 03 17.28087 12 11 09.05 -22 58 51.4                oEF030291
         K16F01D KC2016 03 17.28257 12 11 08.76 -22 58 42.8                oEF030291
         K16F01D KC2016 03 17.28427 12 11 08.46 -22 58 34.4                oEF030291
         K16F01D  C2016 03 17.33082 12 11 00.27 -22 54 53.0          20.7 RoEF030926
         K16F01D  C2016 03 17.33464 12 10 59.59 -22 54 35.1          20.8 RoEF030926
         K16F01D  C2016 03 17.33847 12 10 58.90 -22 54 16.9          20.6 RoEF030926
         K16F01D  C2016 03 18.25990 12 08 42.14 -21 43 05.1          20.0 RoEF030926
         K16F01D  C2016 03 18.26370 12 08 41.50 -21 42 48.1          19.9 RoEF030926
         K16F01D  C2016 03 18.26753 12 08 40.90 -21 42 31.2          19.9 RoEF030926
    
    Observer details:
    291 LPL/Spacewatch II.  Observer M. T. Read.  1.8-m f/2.7 reflector + CCD.
    807 Cerro Tololo.  Observers T. Linder, R. Holmes.  0.61-m f/6.5 astrograph
        + CCD.
    926 Tenagra II Observatory.  Observers M. Schwartz, P. R. Holvorcem.  Measurer
        M. Schwartz.  0.81-m f/7 Ritchey-Chretien + CCD.
    F51 Pan-STARRS 1, Haleakala.  Observers B. Gibson, T. Goggia, N. Primak,
        A. Schultz, M. Willman.  Measurers K. Chambers, S. Chastel, L. Denneau,
        H. Flewelling, M. Huber, E. Lilly, E. Magnier, R. Wainscoat, C. Waters,
        R. Weryk.  1.8-m Ritchey-Chretien + CCD.
    K92 Sutherland-LCOGT B.  Observers T. Lister, S. Greenstreet, E. Gomez.
        Measurer T. Lister.  1.0-m f/8 Ritchey-Chretien + CCD.
    
    Orbital elements:
    2016 FD1                                                 Earth MOID = 0.0457 AU
    Epoch 2016 Jan. 13.0 TT = JDT 2457400.5                 MPC
    M   2.19012              (2000.0)            P               Q
    n   0.52017587     Peri.  224.39747     +0.11250459     -0.99235433
    a   1.5312141      Node   219.22509     +0.93253513     +0.12308297
    e   0.5303243      Incl.    4.60320     +0.34310485     -0.00913648
    P   1.89           H   23.2           G   0.15           U   7
    Residuals in seconds of arc
    160316 F51  0.1+  0.0     160317 807  0.3-  0.2-    160317 926  0.5+  0.1+
    160316 F51  0.1+  0.0     160317 807  0.3-  0.2-    160317 926  0.3+  0.3-
    160316 F51  0.1-  0.0     160317 807  0.6-  0.1-    160317 926  0.1+  0.3-
    160317 K92  0.1-  0.2+    160317 291  0.1+  0.3-    160318 926  0.1+  0.0
    160317 K92  0.2+  0.1+    160317 291  0.2+  0.2+    160318 926  0.3-  0.1+
    160317 K92  0.1-  0.2+    160317 291  0.2+  0.6+    160318 926  0.1-  0.2-
    
    Ephemeris:
    2016 FD1                 a,e,i = 1.53, 0.53, 5                   q = 0.7192
    Date    TT    R. A. (2000) Decl.     Delta      r     Elong.  Phase     V
    2016 02 17    21 06 37.8 -54 43 03   0.1152  0.9080    43.6   131.4    24.1
    ...
    2016 03 03    13 42 33.0 -52 36 13   0.1055  1.0337   110.9    63.7    20.6
    ...
    2016 03 11    12 33 39.0 -33 10 57   0.1389  1.1031   139.7    35.6    20.6
    ...
    2016 03 17    12 11 52.8 -23 20 50   0.1746  1.1552   154.6    21.7    20.8
    2016 03 18    12 09 18.9 -22 02 11   0.1812  1.1638   156.6    19.9    20.8
    2016 03 19    12 06 57.9 -20 48 14   0.1880  1.1725   158.4    18.2    20.9
    ...
    2016 03 25    11 56 22.9 -14 47 10   0.2323  1.2240   166.1    11.3    21.2
    ...
    2016 04 02    11 48 35.0 -09 25 01   0.2998  1.2916   165.1    11.5    21.8
    ...
    2016 04 17    11 45 21.7 -04 02 02   0.4502  1.4136   150.6    20.4    23.2
    
    A. U. Tomatic                (C) Copyright 2016 MPC           M.P.E.C. 2016-F30
    

    Read MPEC 2016-F29 Read MPEC 2016-F31


    MPEC number:

    Enter an MPEC number in one of the following forms:

    • 1997-B01 (the full form)
    • J97B01 (the packed version of the full form)
    • B01 (the abbreviated form)